Home   Weather   Jefferson City   Past weeks
Flag for USA

Past Weather in Jefferson City, Missouri, USA — Yesterday and Last 2 Weeks

Now
73 °F

Clear.


Feels Like: 72 °F
Forecast: 94 / 76 °F
Wind: 12 mph from Southeast

Location: Columbia Regional Airport

Current Time: Jul 17, 2019 at 11:58:55 pm

Latest Report: Jul 17, 2019 at 10:54 pm


Visibility: 10 mi

Pressure: 29.92 "Hg

Humidity: 84%

Dew Point: 68 °F

Location of Jefferson CityLocation

Past Weather in Jefferson City — Graph

°F

Jefferson City Temperature Yesterday

Maximum temperature yesterday: 87 °F (at 3:54 pm)
Minimum temperature yesterday: 73 °F (at 1:54 am)
Average temperature yesterday: 78 °F

High & Low Weather Summary for the Past Weeks

 TemperatureHumidityPressure
High93 °F (Jul 17, 1:54 pm)97% (Jul 6, 2:14 am)30.11 "Hg (Jul 6, 2:14 am)
Low67 °F (Jul 12, 4:54 am)45% (Jul 13, 5:54 pm)29.83 "Hg (Jul 3, 4:54 pm)
Average78 °F76%29.97 "Hg
* Reported Jul 2 10:54 pm — Jul 17 10:54 pm, Jefferson City. Weather by CustomWeather, © 2019

Note: Actual official high and low records may vary slightly from our data, if they occured in-between our weather recording intervals... More about our weather records

Advertising

Jefferson City Weather History for the Previous 24 Hours

Scroll right to see more
 ConditionsComfort  
Time TempWeatherWind HumidityBarometerVisibility
10:54 pm
Wed, Jul 17
73 °FClear.12 mph84%29.92 "Hg10 mi
9:54 pm73 °FClear.8 mph84%29.92 "Hg10 mi
9:01 pm73 °FClear.9 mph88%29.95 "Hg10 mi
7:54 pm73 °FPartly sunny.14 mph88%29.95 "Hg10 mi
6:54 pm74 °FScattered clouds.17 mph85%29.95 "Hg10 mi
6:27 pm75 °FThundershowers. Broken clouds.20 mph82%29.96 "Hg10 mi
6:19 pm76 °FThundershowers. Broken clouds.23 mph80%29.95 "Hg10 mi
5:54 pm90 °FPassing clouds.9 mph61%29.88 "Hg10 mi
5:28 pm91 °FPartly sunny.14 mph61%29.91 "Hg10 mi
5:13 pm91 °FThundershowers. Scattered clouds.12 mph61%29.90 "Hg10 mi
4:54 pm93 °FThunderstorms. Broken clouds.10 mph60%29.88 "Hg10 mi
3:54 pm91 °FThundershowers. Mostly cloudy.7 mph66%29.89 "Hg10 mi
3:31 pm89 °FThundershowers. Broken clouds.10 mph68%29.93 "Hg10 mi
2:54 pm93 °FBroken clouds.10 mph60%29.90 "Hg10 mi
1:54 pm93 °FScattered clouds.10 mph62%29.91 "Hg10 mi
12:54 pm91 °FSunny.13 mph61%29.93 "Hg10 mi
11:54 am87 °FScattered clouds.9 mph65%29.93 "Hg10 mi
10:54 am87 °FSunny.10 mph67%29.95 "Hg10 mi
9:54 am84 °FScattered clouds.7 mph72%29.96 "Hg10 mi
8:54 am81 °FPassing clouds.6 mph79%29.95 "Hg10 mi
7:54 am76 °FOvercast.5 mph88%29.94 "Hg10 mi
6:54 am73 °FSunny.5 mph90%29.93 "Hg10 mi
5:54 am71 °FClear.5 mph93%29.92 "Hg10 mi
4:54 am71 °FClear.5 mph93%29.91 "Hg10 mi
3:54 am72 °FClear.5 mph91%29.90 "Hg10 mi
2:54 am73 °FClear.5 mph90%29.90 "Hg10 mi
1:54 am72 °FClear.5 mph93%29.91 "Hg10 mi
12:54 am73 °FClear.3 mph90%29.91 "Hg10 mi
11:54 pm
Tue, Jul 16
77 °FClear.3 mph82%29.92 "Hg10 mi
Weather by CustomWeather, © 2019

See weather overview